Theta_e
298 291 289 289 291 293 292 291 290 290 290 288 288 286 284 286 287 289 289 291 291 291 289 289 291 291 290 290 291 289 291 291 291 291 292 292 292 294 296 297 299 302 305 308 309 313 317 319 321 323 323 323 323 324 324 325 325 326 326 325 325 326 327 328 328 327 328 327 326 326 328 329 329 330 330 330 330 329 329 327 326 325 325 323 322 322
297 290 290 292 294 294 292 291 291 290 290 289 288 286 284 285 285 288 290 291 290 291 289 288 287 289 290 291 291 289 290 292 293 292 292 292 292 292 294 296 297 301 301 301 303 307 311 316 318 319 321 318 320 322 323 324 325 325 326 325 326 326 327 328 329 328 328 329 329 328 328 329 328 327 327 328 329 330 330 329 329 326 324 324 323 321
290 288 292 293 294 293 293 292 291 290 289 288 287 285 284 284 286 288 289 290 290 291 287 285 288 290 291 291 291 289 291 291 293 294 294 293 293 292 292 294 296 296 298 298 300 305 310 313 315 317 319 320 322 323 323 324 324 324 324 325 326 326 327 328 329 328 328 328 326 327 323 327 323 322 325 325 325 326 328 329 328 326 326 325 324 325
285 289 293 295 294 293 291 291 290 289 290 287 286 284 283 284 286 285 287 290 290 287 287 286 286 288 289 287 289 292 291 291 292 293 293 293 294 294 293 294 296 296 297 297 298 300 306 311 314 315 317 319 320 321 321 322 323 325 324 325 325 325 327 327 327 326 328 327 324 321 319 321 324 321 320 321 320 323 323 324 325 325 326 325 325 326
288 290 294 294 294 293 291 290 289 287 287 288 288 284 283 285 286 285 285 288 288 290 288 285 284 285 284 288 287 291 291 291 292 292 292 292 293 293 294 294 295 297 297 297 297 297 301 307 312 315 317 317 318 319 321 322 323 325 324 325 325 325 326 327 325 325 325 322 319 317 316 317 317 317 316 316 320 320 320 322 319 322 323 325 325 325
289 292 295 293 292 292 291 289 289 289 285 286 288 289 288 287 288 288 287 286 283 285 285 289 282 279 279 283 287 292 288 289 290 291 292 293 293 292 293 294 294 294 294 297 299 299 300 307 311 312 313 315 317 319 321 322 324 324 325 324 324 324 325 325 324 324 324 324 324 320 320 319 317 319 317 319 322 319 319 321 315 315 319 322 323 323
290 291 294 292 291 291 290 289 290 290 286 284 286 289 288 288 288 287 286 284 279 279 285 286 283 276 281 283 283 285 285 289 288 288 292 292 293 292 293 294 294 294 294 293 296 296 298 304 308 312 313 315 316 318 319 319 321 321 322 323 323 324 324 324 323 322 322 323 323 323 323 322 320 319 317 314 314 318 315 315 316 317 316 321 323 321
290 288 290 292 291 290 289 287 290 291 287 283 287 289 288 288 286 287 287 285 278 281 287 282 280 278 279 284 282 281 284 285 286 288 289 292 292 292 293 294 293 294 293 295 298 299 299 303 308 311 314 314 316 316 312 315 316 318 319 320 321 322 321 322 321 321 323 324 322 322 321 320 320 318 315 310 311 312 312 314 314 313 314 316 318 320
290 288 289 289 289 289 288 290 292 292 289 286 288 289 289 290 289 287 287 282 282 284 280 280 285 281 276 281 283 283 285 285 287 288 290 291 292 292 293 294 294 294 295 295 297 298 299 301 304 309 311 311 308 306 310 313 314 314 315 316 317 319 319 320 320 320 321 322 322 322 320 317 315 312 309 306 306 310 312 312 309 312 314 315 316 317
289 291 292 292 290 288 289 291 291 293 289 293 292 291 290 288 287 286 282 283 283 279 277 280 281 277 277 278 280 281 285 284 286 289 290 291 292 292 293 293 294 293 293 293 295 296 297 298 299 299 300 300 301 301 302 302 303 308 310 313 315 318 318 319 319 320 320 320 319 319 317 316 310 308 307 306 307 306 307 308 307 309 311 311 313 312
291 292 294 292 290 291 291 290 291 292 294 294 293 291 288 284 283 281 281 279 279 275 276 279 279 280 277 280 284 284 284 285 287 287 287 287 289 290 290 291 293 294 295 294 294 296 297 296 297 298 300 299 298 297 298 299 301 306 310 312 314 316 316 316 319 318 319 318 318 319 316 315 312 309 310 308 304 305 305 308 304 305 306 305 306 305
289 291 292 290 291 290 292 291 293 293 294 295 287 285 287 285 282 279 277 278 275 270 275 278 280 280 275 276 280 283 283 283 286 286 289 290 288 290 290 291 293 295 295 294 295 297 297 297 298 298 299 299 299 298 297 298 298 302 307 310 313 311 313 313 316 316 317 316 315 315 315 315 313 311 311 311 308 307 307 306 306 302 303 303 303 304
286 287 289 291 293 292 290 291 290 293 293 289 287 288 284 275 275 276 274 274 272 272 278 278 280 280 279 281 283 283 285 287 284 287 289 288 289 289 291 292 294 294 294 294 294 295 296 297 297 297 297 298 298 299 297 298 298 300 303 307 311 311 308 311 311 314 312 312 312 314 314 313 312 312 311 310 309 306 308 305 304 304 303 300 301 302
283 284 287 289 291 292 293 289 285 286 287 286 287 283 280 273 272 270 266 266 268 275 277 279 280 279 279 283 289 291 294 291 287 286 286 287 290 291 292 291 292 292 293 295 293 293 294 295 295 296 297 298 296 297 298 296 297 298 302 303 309 309 305 306 308 310 310 310 309 311 312 311 311 310 310 310 310 305 305 305 305 305 303 301 300 301
280 280 286 288 287 292 291 291 291 288 286 286 286 287 282 277 270 269 269 273 274 276 276 278 277 273 278 282 284 288 290 286 286 285 285 286 288 289 290 291 291 292 292 291 292 294 295 295 294 296 296 296 297 297 297 297 297 297 300 302 305 306 302 305 307 308 309 308 308 309 310 311 311 311 311 309 307 305 304 303 303 302 301 302 300 300
284 283 286 290 290 289 291 292 294 292 290 287 286 287 283 283 281 277 276 274 271 272 274 275 275 278 282 283 286 287 286 287 285 287 289 290 291 291 292 293 294 293 293 292 293 293 293 292 293 294 295 296 297 297 296 297 297 298 299 299 302 305 303 304 305 307 309 308 309 310 310 310 310 307 306 304 303 303 303 302 302 300 300 299 299 297
283 282 287 288 290 289 290 290 292 293 285 287 286 282 284 286 283 277 276 278 275 272 272 272 277 279 280 287 290 283 285 287 287 287 288 290 290 290 292 292 291 293 292 292 293 293 293 293 293 293 294 294 294 294 296 298 297 298 299 300 302 303 303 305 306 308 308 308 308 307 307 307 306 306 305 305 303 302 300 300 300 300 298 297 296 296
284 281 286 286 287 290 289 288 292 289 290 287 282 285 287 289 286 282 276 270 269 272 273 273 276 277 277 278 283 283 285 287 284 286 286 286 287 290 292 292 293 293 293 292 292 292 292 293 293 292 293 293 294 294 294 296 296 299 300 302 304 305 306 305 307 307 307 307 306 305 305 304 304 304 304 304 303 301 300 298 298 297 297 295 295 296
288 281 285 286 287 289 290 291 291 292 292 288 286 291 287 281 280 281 278 271 270 268 266 272 275 276 277 282 282 284 285 289 289 287 285 287 287 290 290 291 291 290 290 292 292 291 291 291 291 291 292 292 292 293 293 296 298 299 298 300 304 305 305 305 305 304 305 306 305 304 303 304 304 303 302 301 300 300 298 296 296 295 294 293 293 294
287 281 282 286 287 288 287 287 284 285 290 289 289 287 288 286 281 279 280 277 277 271 269 270 275 277 280 281 282 287 286 287 288 286 287 289 289 290 291 291 291 292 293 293 292 291 291 290 290 291 291 292 292 293 294 297 297 299 300 302 303 304 305 305 305 305 305 304 304 302 302 302 301 300 299 298 298 297 296 295 295 294 293 292 292 291
285 284 278 283 287 287 283 285 285 287 284 285 285 283 286 284 284 282 281 276 276 267 267 266 269 273 279 283 286 289 289 289 287 288 288 289 289 290 291 292 292 293 293 292 292 291 290 290 290 291 291 291 290 291 293 296 298 298 299 301 304 306 306 305 304 304 303 303 302 301 300 299 298 296 296 295 295 294 293 293 292 292 291 290 289 288
284 282 280 282 282 281 282 285 287 288 290 289 288 285 286 281 280 278 278 280 273 275 272 267 273 274 282 285 288 290 289 286 286 288 289 289 289 289 291 292 293 294 292 290 290 289 289 289 289 290 289 289 289 290 292 293 297 299 300 301 301 303 304 302 302 301 301 301 300 299 297 295 294 293 293 293 292 291 290 290 289 289 289 289 286 287
285 283 282 277 281 284 284 287 288 288 285 286 286 287 290 288 285 279 276 277 277 276 274 270 271 276 284 284 285 286 286 285 284 285 288 289 288 288 289 292 294 294 293 292 291 290 289 289 289 289 289 289 289 290 289 291 297 300 300 300 299 301 301 301 300 300 299 298 297 295 293 292 291 291 291 290 290 289 289 288 287 288 289 288 286 285
291 283 280 280 283 283 285 285 287 287 287 287 286 285 284 286 285 284 280 280 280 276 276 275 272 275 281 281 284 284 284 284 285 285 288 288 288 288 289 293 294 293 291 291 290 290 290 288 287 287 288 289 288 288 290 290 291 295 297 299 299 299 298 298 297 297 296 294 292 291 290 290 290 290 290 289 289 288 287 287 287 286 287 286 286 286
284 281 283 275 275 278 281 283 284 285 287 282 282 283 285 286 283 280 279 278 279 277 278 276 275 274 282 281 283 283 285 286 286 285 286 289 289 290 291 293 294 292 291 291 291 290 288 287 288 290 290 290 289 287 288 290 290 292 293 294 296 296 295 294 294 293 292 291 290 289 289 288 289 289 288 288 287 287 286 286 286 285 286 285 285 284
288 283 284 278 275 274 272 275 279 281 282 283 283 284 286 286 283 283 280 279 277 277 278 274 274 280 283 283 284 285 285 286 287 287 286 288 290 292 293 294 294 293 293 291 290 289 289 290 290 289 288 289 287 289 289 289 289 290 290 291 291 292 291 290 290 291 290 290 289 288 288 287 287 287 287 287 287 286 286 286 285 284 284 284 284 283
284 286 287 285 283 281 283 283 285 286 285 284 285 285 285 287 285 285 282 279 280 278 278 280 283 285 282 285 285 287 285 288 288 287 288 288 289 292 292 293 294 293 293 292 291 291 289 289 290 291 290 290 289 288 289 290 290 290 290 290 289 290 290 289 290 289 289 288 288 287 287 286 286 286 286 286 286 285 285 284 284 284 284 283 284 284
286 285 286 285 285 285 283 283 286 290 286 287 286 285 286 286 285 285 284 282 283 280 279 282 283 283 285 285 284 285 287 285 286 287 287 286 288 293 293 291 292 291 290 291 291 291 291 291 290 290 290 288 289 288 289 289 290 291 291 290 289 289 289 289 288 288 287 287 286 286 286 285 285 285 285 285 284 284 284 284 284 283 283 283 284 283
286 285 285 284 284 284 285 286 287 288 288 287 287 286 284 285 285 285 284 287 284 282 282 286 285 283 286 286 287 288 289 290 290 289 289 287 289 291 291 292 292 292 292 292 292 292 292 292 291 290 289 289 288 289 289 289 289 288 288 288 288 288 288 287 287 286 286 286 285 285 285 284 284 284 284 284 284 283 283 283 283 283 283 283 283 283
287 281 282 285 283 284 284 286 287 287 285 285 285 286 286 285 285 286 287 288 286 285 287 287 284 284 288 287 288 289 289 289 287 286 287 289 290 293 293 293 293 293 293 293 293 293 293 292 291 290 289 289 289 289 289 289 289 289 289 288 287 287 286 286 286 286 285 285 285 284 284 284 283 283 283 283 283 283 283 283 282 283 282 282 282 282
287 280 286 282 280 282 285 285 286 286 286 284 285 286 287 286 287 287 288 287 285 285 286 284 283 284 289 287 288 287 286 287 286 287 288 289 289 292 293 293 293 294 294 294 294 293 293 292 291 290 289 290 289 290 290 290 289 288 288 287 287 286 285 286 285 285 285 284 284 283 283 283 283 283 283 283 282 282 282 282 282 282 282 281 281 281
287 279 283 281 280 278 283 283 283 284 285 285 285 285 286 286 284 285 284 285 284 285 286 284 283 285 286 288 289 290 287 287 287 288 288 289 286 289 291 292 293 294 295 295 295 294 292 292 291 290 291 291 290 290 290 290 289 288 288 287 286 286 285 285 285 284 284 284 283 283 283 283 283 282 282 282 282 282 281 281 281 281 281 281 280 280
286 283 280 279 279 278 280 283 283 283 284 282 284 286 287 287 288 288 289 288 289 290 285 283 285 289 287 288 289 288 288 288 289 290 289 288 286 288 291 292 293 294 295 295 294 294 293 293 292 292 292 291 291 291 290 290 289 288 288 286 286 285 284 284 284 284 283 283 283 283 282 282 282 282 282 281 281 281 281 281 280 280 280 280 279 279
285 286 281 282 278 273 276 281 281 281 276 279 290 290 289 287 287 285 285 287 289 289 288 290 291 288 287 288 289 288 288 289 291 293 293 294 289 286 290 292 293 294 295 294 295 294 294 294 293 293 292 292 291 291 290 289 289 289 287 286 284 284 284 284 284 284 283 283 283 282 282 282 282 282 281 281 280 280 280 280 280 279 279 279 278 278
285 284 280 278 275 272 274 280 280 276 278 287 288 292 292 291 289 288 289 290 290 290 290 290 290 289 288 290 291 292 291 292 289 290 291 288 288 289 290 291 293 294 294 294 294 293 293 294 293 292 290 290 290 290 289 288 288 286 285 285 284 284 284 284 284 283 283 283 282 282 282 282 281 281 280 280 280 279 279 279 279 279 278 278 278 278
284 283 277 274 272 273 273 278 273 277 283 283 284 286 289 291 290 288 287 288 288 289 290 290 292 293 291 290 289 289 288 288 287 286 288 289 288 291 289 291 293 293 293 294 294 294 294 294 293 292 292 291 290 289 288 288 286 285 284 284 284 284 284 284 283 283 283 282 282 282 282 281 281 280 280 279 279 279 278 278 278 278 278 277 277 277
287 284 282 278 275 275 272 277 277 279 282 285 285 285 287 286 285 286 284 287 291 291 290 291 292 292 292 291 289 287 286 287 288 292 289 290 289 288 292 293 294 294 295 295 295 296 296 295 294 293 291 290 290 288 288 286 286 285 284 284 283 283 283 283 283 283 282 282 282 281 281 281 280 280 279 278 278 278 277 277 277 277 276 277 277 277
287 286 281 282 275 273 273 271 271 274 276 283 285 285 291 290 292 291 288 287 292 292 293 292 292 293 291 289 288 286 288 289 288 291 292 289 290 291 291 293 294 294 294 291 291 291 291 291 290 289 290 289 288 288 287 286 286 285 284 283 283 283 283 283 283 283 282 281 281 281 281 280 280 279 278 278 277 277 277 277 277 277 276 277 276 277
282 282 283 284 276 274 271 273 271 274 280 281 284 286 288 291 291 288 285 284 291 291 291 292 292 293 291 290 287 287 288 285 288 293 290 290 290 291 291 291 291 289 288 289 291 289 289 290 290 289 288 288 287 287 286 286 285 284 283 283 283 283 282 282 282 282 281 281 280 280 280 279 279 278 277 277 277 277 277 276 276 276 276 276 275 276
281 277 279 278 273 276 276 273 275 272 281 280 283 284 286 287 291 288 274 279 286 289 291 291 292 292 291 291 288 288 288 287 290 293 288 289 290 291 290 291 290 288 287 287 287 288 289 288 287 287 287 287 287 286 286 285 285 284 283 283 283 282 282 282 282 281 281 280 280 279 279 278 278 277 277 277 276 276 276 276 275 275 274 274 275 275
277 277 278 280 279 278 281 271 269 277 283 281 283 284 286 291 290 280 276 284 285 287 289 291 291 292 291 288 287 288 290 294 294 288 286 285 288 288 286 285 285 286 287 286 287 287 287 288 289 289 288 288 287 286 286 285 284 283 283 283 282 282 282 282 281 280 280 279 279 278 277 277 276 276 275 276 276 276 275 275 275 274 274 274 275 275
274 274 272 274 275 277 277 277 276 277 283 285 283 287 287 288 276 280 287 283 284 282 284 287 289 288 287 288 288 290 293 292 288 283 287 286 286 285 284 283 282 282 282 283 284 287 287 287 286 286 286 287 286 286 286 285 284 284 282 282 281 282 281 280 279 279 278 278 277 276 275 275 274 275 275 275 275 274 274 274 274 273 273 274 275 274
281 279 276 279 275 273 269 274 272 273 281 288 286 285 285 286 284 283 282 284 282 281 285 284 287 288 287 287 288 290 291 288 286 285 284 284 283 284 283 283 283 283 284 284 284 285 287 287 286 286 286 286 285 286 285 285 284 283 282 281 281 279 279 279 278 277 277 276 275 274 274 274 274 274 274 274 274 273 273 273 273 273 274 274 274 273
285 279 274 280 281 277 276 274 278 284 285 289 290 287 286 288 283 285 286 287 284 281 283 284 285 286 286 289 288 287 288 287 285 282 284 283 282 282 283 283 283 282 283 283 284 285 286 287 286 286 284 284 285 285 285 285 283 282 281 280 278 277 277 277 277 276 275 274 273 272 272 272 272 272 273 273 273 273 273 273 273 273 273 273 273 272
284 285 283 282 279 278 280 283 287 282 288 287 288 287 292 293 286 284 286 290 288 287 282 284 287 285 284 287 286 285 285 284 286 283 285 285 283 282 283 283 282 283 283 283 283 283 283 286 284 283 282 283 283 284 284 284 283 280 280 278 276 277 276 276 275 274 273 272 272 272 271 271 272 272 272 272 273 273 273 272 272 272 273 272 272 271
285 286 282 286 283 287 285 287 284 280 282 285 283 284 287 292 284 282 285 287 286 287 285 287 284 285 284 283 286 283 284 283 284 282 282 281 282 281 280 280 280 280 279 279 279 280 280 280 281 281 280 279 280 280 280 280 281 279 279 276 276 276 276 275 274 273 271 271 271 271 272 271 271 271 272 272 273 272 273 272 273 272 271 270 270 269
283 282 284 282 280 285 281 290 285 286 283 287 289 285 283 283 286 283 284 285 284 283 283 283 283 283 284 282 285 286 284 281 284 283 281 281 281 281 281 281 281 280 280 280 280 278 279 279 280 279 279 278 276 277 276 276 276 277 275 274 275 275 274 274 273 272 271 271 271 271 272 271 271 271 271 271 272 272 272 272 271 271 270 269 269 268
282 283 286 282 281 285 286 285 284 287 285 285 287 288 287 285 284 281 282 282 282 282 282 284 282 282 282 284 283 284 284 282 283 283 282 282 283 282 281 281 280 278 277 277 277 277 278 279 280 279 278 278 276 276 275 275 274 273 273 273 273 273 273 272 272 271 271 271 271 271 272 271 272 271 271 271 271 270 270 270 270 270 269 269 269 268
284 287 282 283 284 284 283 280 281 284 285 285 283 283 284 287 286 281 281 282 283 284 284 283 283 283 283 285 283 282 283 283 284 284 283 283 282 282 282 281 279 278 277 276 275 276 279 279 278 278 278 277 275 274 274 273 272 272 273 273 272 273 272 272 271 271 271 271 271 271 272 271 271 271 270 269 269 269 270 269 269 269 269 269 268 268
285 284 282 282 282 282 285 285 283 283 281 286 286 288 284 282 283 283 282 283 283 284 283 285 285 282 280 281 282 282 284 283 281 281 281 281 282 280 280 279 278 277 276 275 275 274 275 275 277 277 277 275 273 272 272 271 270 271 272 272 273 273 272 271 271 271 271 271 271 271 270 270 270 269 269 268 267 267 268 271 272 271 269 268 272 274
287 285 284 284 284 284 287 285 288 286 284 282 286 285 282 282 283 284 284 284 282 282 283 284 284 286 285 283 282 283 283 282 281 280 280 280 281 280 280 278 278 277 276 274 274 274 275 275 275 275 275 274 272 271 271 270 269 270 270 271 272 272 272 271 271 270 270 270 269 270 270 269 268 268 267 267 267 267 267 268 271 275 274 274 274 275
Wind_Speed
6 10 14 17 14 12 6 6 9 10 7 2 0 2 4 6 4 2 2 2 0 2 7 7 9 8 5 6 7 4 1 3 5 6 6 6 8 8 9 10 11 11 15 9 8 8 10 12 11 11 9 10 9 9 9 10 11 12 13 11 12 10 9 9 9 8 9 9 7 6 9 9 7 7 7 7 6 6 6 6 6 6 5 4 4 5
10 9 13 10 9 9 5 5 8 7 4 4 2 0 5 3 5 2 1 1 4 5 3 3 4 8 9 8 6 0 1 9 10 8 8 9 8 8 9 11 11 13 4 0 4 5 5 8 9 9 9 8 10 10 10 12 12 11 10 13 13 10 10 11 11 10 9 9 10 9 9 8 7 7 7 8 7 7 6 6 6 5 5 5 5 5
11 15 9 7 6 4 6 5 6 8 8 4 5 4 2 6 3 3 2 2 2 2 8 0 5 10 11 9 6 3 8 7 7 9 11 11 11 10 9 10 11 6 8 6 7 6 8 9 9 9 9 10 13 12 13 12 10 10 11 12 11 11 11 11 11 10 11 8 7 9 6 8 5 4 5 5 5 5 6 7 6 6 5 6 5 5
9 11 11 8 5 7 7 6 5 6 4 4 3 2 5 4 5 5 2 0 2 2 1 1 3 8 7 3 7 9 8 6 7 9 11 8 12 13 13 13 13 12 10 10 10 10 9 9 9 8 9 11 9 10 9 9 12 10 10 10 10 11 11 10 11 11 10 9 6 5 4 4 6 5 5 4 4 5 5 6 6 6 5 6 6 6
5 5 7 11 11 9 9 7 5 6 8 4 4 3 3 2 5 4 4 1 0 0 2 1 3 7 5 5 5 8 8 5 5 6 8 10 9 7 5 6 9 12 13 12 9 7 7 8 11 13 12 8 10 11 11 12 12 10 13 12 12 11 12 10 10 11 7 6 4 4 1 1 2 1 2 4 5 5 5 5 5 6 5 6 6 6
8 8 13 12 9 9 8 9 8 7 7 5 5 8 8 7 7 0 3 5 1 3 1 1 3 5 4 6 10 10 1 4 6 7 11 13 11 7 10 12 8 8 7 11 13 13 12 12 10 8 8 10 10 11 11 11 12 11 11 11 10 9 9 10 10 10 9 9 9 7 7 7 6 8 7 10 10 6 6 7 3 3 5 6 6 5
7 3 14 14 10 8 8 8 7 8 7 5 6 8 7 7 6 7 5 4 1 3 2 1 7 5 5 3 5 5 4 10 5 5 11 10 10 8 12 10 9 10 9 6 6 5 6 8 8 10 10 11 11 12 9 8 9 9 8 8 9 9 8 9 8 9 9 8 9 12 12 10 9 9 6 1 2 5 4 3 4 5 4 5 6 5
5 5 10 12 11 10 8 9 7 10 7 6 2 4 5 6 7 8 9 7 2 1 1 4 2 3 5 8 4 3 2 7 6 9 12 12 11 11 11 10 10 10 8 8 9 9 8 8 11 14 13 11 12 10 6 7 6 8 9 9 9 8 8 7 7 9 10 11 10 10 10 9 8 8 6 4 3 2 4 4 3 3 3 2 1 3
9 6 9 11 9 9 9 6 5 9 7 4 3 7 8 9 8 8 6 4 1 1 4 1 0 1 5 7 6 1 2 5 8 10 12 14 12 10 9 11 12 11 9 8 10 10 11 11 11 9 10 9 6 4 7 8 8 7 6 6 6 8 7 7 8 10 10 10 10 10 8 7 5 4 4 3 2 4 4 4 3 4 4 5 4 4
2 9 12 12 8 9 5 8 5 10 7 2 6 5 6 7 6 4 5 5 0 2 6 4 2 4 7 6 5 2 1 5 8 9 10 10 12 12 12 11 9 6 5 5 7 6 6 6 6 5 2 2 5 5 4 4 4 5 5 6 8 9 8 8 9 10 10 9 8 8 7 8 5 4 3 3 4 4 4 5 4 4 4 5 5 4
1 3 1 3 9 7 8 2 4 6 2 6 6 6 5 7 3 3 5 3 3 2 7 6 3 2 4 4 7 5 5 7 6 6 6 5 5 6 7 8 7 6 5 5 4 3 2 1 2 2 6 5 3 4 4 5 5 6 7 7 9 9 7 8 9 10 11 8 8 8 8 8 7 6 7 5 4 4 4 6 4 5 4 4 4 3
2 1 2 1 2 2 3 4 1 2 3 10 3 4 6 4 6 4 3 4 3 5 5 1 3 2 6 4 5 8 5 4 5 6 8 8 6 7 6 5 6 5 5 4 4 3 2 3 1 1 3 3 3 2 4 5 5 5 7 7 9 7 8 7 8 8 9 8 7 6 8 8 8 9 8 8 7 6 7 6 6 3 4 4 3 4
1 1 1 3 3 6 4 5 1 2 1 3 6 8 9 2 3 3 1 3 5 6 1 0 2 1 7 8 7 6 7 9 7 8 8 7 8 7 5 5 5 5 5 5 4 4 3 4 4 4 3 2 3 5 5 6 5 5 5 7 9 8 6 7 6 8 7 6 7 7 7 7 7 8 8 7 7 6 7 6 5 5 4 2 4 3
3 2 2 3 3 3 4 12 3 5 2 5 9 7 7 2 2 4 3 1 4 6 4 0 0 2 3 8 13 16 18 6 3 9 8 7 8 6 5 4 4 4 4 4 4 4 4 4 4 4 4 4 4 4 4 5 5 5 5 5 8 7 6 5 6 7 7 6 6 7 7 7 7 7 7 7 8 6 6 5 6 5 5 5 5 5
8 3 8 6 4 0 0 2 9 6 3 5 3 9 7 7 5 3 3 5 7 7 1 3 2 6 5 5 1 7 8 8 7 7 6 5 5 4 3 2 2 3 4 3 4 4 5 4 4 4 4 4 4 4 4 4 4 3 4 5 6 6 4 5 6 6 7 6 6 6 6 7 7 8 7 6 6 7 6 4 6 5 5 6 4 5
13 2 3 2 1 2 5 1 1 7 5 2 2 5 5 7 6 5 6 3 2 1 0 1 5 5 6 2 6 5 7 7 3 3 2 4 1 1 3 5 5 4 4 3 3 4 4 4 4 4 4 5 5 5 4 4 4 4 4 4 4 6 5 5 6 5 7 6 6 7 8 7 8 7 7 6 5 5 6 6 8 6 5 5 5 4
3 4 2 5 2 1 1 0 1 3 10 5 5 6 5 1 8 5 3 0 2 4 5 2 5 5 9 9 9 3 4 6 2 3 2 3 2 1 5 5 4 4 4 3 4 4 4 1 2 4 4 3 3 3 4 4 4 4 4 4 4 4 4 6 6 7 7 7 8 6 8 8 8 8 8 8 8 7 6 7 6 7 5 5 4 4
11 2 1 2 4 1 0 1 1 2 2 7 3 8 2 2 4 4 5 2 1 4 6 2 7 4 2 5 4 5 3 9 5 5 4 3 2 4 6 5 6 5 4 4 3 2 2 2 2 1 1 1 3 3 3 3 3 4 4 5 7 6 7 5 7 7 8 9 8 7 7 7 7 8 8 9 9 7 8 7 7 6 6 4 4 5
7 3 1 1 0 5 1 0 1 1 0 5 7 4 7 4 4 1 4 1 1 2 4 2 2 4 6 7 3 3 5 9 9 6 3 6 6 8 6 7 5 4 3 4 4 3 2 3 3 3 3 1 1 1 3 4 4 4 4 4 6 7 6 7 6 6 6 7 6 6 7 8 8 7 8 8 8 7 8 7 6 7 6 5 5 6
1 6 2 2 1 1 2 2 9 4 1 1 3 3 1 2 3 5 7 3 4 4 0 5 2 5 7 6 8 7 8 8 6 3 7 11 10 8 8 8 7 6 6 5 4 4 4 3 3 4 4 4 3 3 3 4 4 5 4 5 5 6 6 7 7 7 8 6 8 8 8 7 7 8 8 7 8 8 8 7 7 7 6 6 5 5
3 2 6 1 1 2 3 3 7 8 6 1 2 3 1 0 2 4 1 4 4 4 5 2 2 5 7 8 8 10 10 10 7 7 8 9 9 9 9 9 7 7 7 6 5 4 4 3 2 2 1 1 1 1 2 4 5 5 4 6 6 9 7 8 7 7 7 7 8 9 9 8 8 8 8 8 8 9 7 6 7 6 6 5 6 5
3 1 8 2 2 4 5 2 2 5 6 8 11 8 9 6 3 4 7 1 2 1 4 3 8 6 9 3 9 12 10 3 4 7 8 8 7 8 8 8 7 7 5 5 4 4 4 3 2 1 1 1 3 3 4 3 4 5 5 5 5 6 6 8 7 7 8 7 8 9 9 8 7 8 8 9 8 8 7 6 7 6 6 7 5 6
6 3 8 4 6 8 4 2 1 1 1 3 3 10 12 8 5 5 7 6 0 3 4 4 1 8 7 4 6 7 5 5 4 4 8 8 7 7 7 5 5 5 5 6 5 5 5 4 4 4 4 3 3 3 4 3 4 6 6 5 5 7 6 7 7 7 8 8 9 9 8 8 8 8 9 10 8 8 7 6 6 6 8 7 6 4
8 5 6 1 1 3 5 3 1 2 1 3 4 1 2 9 8 8 5 6 7 2 2 1 3 7 5 3 5 5 5 4 4 4 7 7 6 5 5 6 6 5 4 4 4 4 4 4 3 4 4 4 4 5 5 4 4 5 5 6 6 8 7 7 7 7 8 8 9 8 9 9 8 9 9 9 7 9 7 7 6 6 8 7 6 7
5 2 9 4 2 3 5 4 4 0 1 2 1 1 1 0 2 2 4 1 2 6 7 6 10 4 5 2 3 3 5 4 4 4 6 7 5 4 4 5 5 4 4 4 5 5 4 4 5 5 5 5 5 4 4 4 5 5 6 5 7 7 6 6 6 8 8 9 10 8 9 9 8 9 9 9 8 8 8 7 7 6 7 7 7 5
4 5 9 7 9 9 6 11 16 12 8 1 1 1 3 5 4 3 3 0 4 2 4 3 6 8 7 2 3 4 3 4 5 6 4 5 5 3 4 5 6 6 6 6 5 5 8 8 6 5 5 4 4 5 5 5 5 5 5 5 5 7 6 6 6 7 9 9 10 9 10 8 8 9 9 9 8 9 8 7 7 7 5 6 7 5
3 3 5 10 14 15 17 6 3 12 5 10 9 9 6 5 5 3 4 4 9 5 7 9 11 9 5 6 4 5 3 5 5 4 5 5 4 3 3 4 5 6 7 9 8 7 4 5 7 6 6 6 5 5 6 6 6 6 6 6 5 5 7 7 8 8 9 8 9 9 9 8 8 9 9 8 8 7 7 7 7 7 6 5 6 6
4 4 10 9 9 4 3 4 8 16 16 17 12 9 8 8 6 7 9 11 4 3 10 9 11 10 11 7 5 7 7 4 5 6 6 5 3 3 4 4 5 4 4 4 5 8 10 9 7 7 7 6 6 5 5 5 6 7 8 8 6 7 7 7 8 8 9 9 9 8 9 7 7 8 8 7 7 7 7 7 7 6 5 5 7 6
7 11 7 6 2 3 5 8 10 9 11 10 12 10 9 10 9 12 13 13 8 10 18 17 9 11 11 8 10 10 8 7 7 5 4 2 2 4 5 6 7 7 6 7 10 9 10 11 9 8 7 7 7 8 8 6 5 5 5 5 7 7 8 8 9 9 9 8 9 9 8 7 6 6 7 8 8 8 7 7 6 6 6 6 6 5
6 6 4 7 4 3 3 8 9 12 5 5 9 11 11 11 14 17 18 16 15 14 15 8 5 14 12 5 9 9 7 7 3 1 1 2 4 6 7 8 9 9 10 12 12 12 11 10 9 9 8 8 10 10 9 8 8 8 9 8 7 8 7 8 9 10 9 9 9 8 7 7 7 7 7 8 8 7 7 7 7 7 7 6 5 5
4 4 7 4 4 3 5 3 5 6 10 7 7 10 12 15 18 21 16 11 5 9 12 8 8 17 10 5 6 5 3 0 0 1 5 9 7 7 7 8 7 9 11 11 11 11 9 8 8 9 11 12 12 13 11 10 8 7 8 8 9 9 9 8 10 9 9 9 8 8 7 8 8 7 8 7 7 6 7 7 6 7 6 6 5 5
3 1 1 5 6 3 3 5 3 3 0 6 8 11 16 18 15 8 6 4 6 14 14 10 12 19 3 7 5 6 4 5 5 6 8 7 5 4 5 7 8 11 12 13 13 10 10 11 12 14 16 15 13 12 11 11 10 9 10 9 10 9 8 8 9 10 9 9 8 8 8 8 8 8 8 7 7 7 7 7 7 6 6 6 5 5
6 6 5 5 6 6 3 6 6 4 3 3 10 21 21 13 12 10 12 12 18 18 11 12 21 7 3 6 4 1 4 6 8 8 8 7 6 6 8 9 10 11 12 12 11 12 13 16 18 18 15 12 13 13 11 10 11 12 12 12 9 8 9 9 9 10 10 9 9 9 8 8 9 9 8 7 7 7 7 7 6 6 5 6 4 5
5 10 7 5 9 3 3 8 4 5 6 15 13 6 13 17 14 8 9 15 14 8 11 14 16 3 5 4 6 5 7 8 11 13 11 10 6 5 7 8 10 12 11 9 10 13 15 12 10 11 12 11 9 9 9 10 12 10 8 9 8 10 9 10 9 10 10 9 9 9 8 8 9 9 8 7 7 6 6 6 6 5 4 5 5 6
10 6 6 2 4 4 3 7 6 10 16 8 3 12 17 14 11 19 22 16 14 15 16 16 15 9 8 8 9 10 9 9 5 6 7 6 4 7 9 11 12 12 13 12 10 10 11 14 12 10 10 13 14 12 11 10 8 8 9 9 11 9 10 9 11 10 10 10 9 8 9 9 9 10 8 8 7 6 6 6 5 5 5 6 5 5
10 9 5 2 4 4 2 7 6 15 6 3 8 3 2 11 14 10 11 9 7 11 15 20 25 20 9 9 4 1 3 6 4 5 8 7 6 8 7 9 12 12 12 13 15 16 15 15 17 19 19 12 11 11 10 10 8 10 10 9 11 10 9 10 10 10 9 10 10 9 9 10 10 9 8 8 7 8 7 5 5 6 4 5 5 4
13 7 7 4 0 7 5 9 10 6 9 8 9 5 7 8 6 11 12 16 16 13 15 19 21 15 9 9 4 4 2 2 7 10 6 9 8 8 12 13 13 14 15 15 15 17 17 16 15 13 9 10 12 12 13 11 10 11 11 11 10 10 10 10 11 11 10 10 10 9 9 9 10 10 8 7 8 7 7 7 5 4 3 7 6 5
7 13 5 10 3 6 7 1 1 6 12 18 2 2 9 6 9 8 7 15 10 15 16 16 18 17 7 5 6 4 1 1 10 15 7 9 11 13 13 12 12 11 10 6 2 4 4 6 6 8 13 13 13 13 11 12 12 12 12 11 10 11 11 11 12 11 11 10 9 9 8 8 9 10 9 8 8 8 6 5 4 4 3 6 6 5
6 5 6 10 4 5 4 6 6 9 17 2 8 7 8 10 12 8 5 14 12 9 10 14 18 14 7 8 5 8 4 5 14 16 4 9 10 11 12 12 11 7 5 5 6 6 6 7 9 9 9 11 13 12 12 13 14 13 13 12 12 12 13 12 12 12 11 10 8 8 8 8 8 9 9 8 7 7 8 6 6 5 5 5 5 5
6 2 5 4 5 6 8 5 8 4 11 3 6 4 8 7 13 9 3 13 3 10 13 12 14 14 10 12 9 10 11 13 16 11 4 11 10 10 11 12 9 6 5 1 2 6 8 9 11 10 13 16 17 14 15 15 14 14 14 13 11 13 13 12 11 9 8 9 8 8 7 6 8 7 8 9 7 6 6 5 6 6 6 5 5 5
3 0 3 12 9 7 9 5 3 8 6 4 6 5 7 12 12 9 14 10 4 8 9 13 14 16 11 8 8 9 12 13 11 1 1 0 1 1 1 2 3 3 5 5 5 8 9 10 14 17 18 14 13 13 13 14 14 14 13 14 13 14 11 9 9 9 9 9 9 8 7 6 6 8 6 6 8 7 6 5 6 6 6 6 5 5
0 3 2 3 5 9 8 7 9 7 9 10 0 13 10 8 4 16 8 2 7 5 2 5 10 7 5 9 9 10 12 13 5 1 0 0 1 1 0 0 1 3 3 2 6 8 8 8 6 6 6 8 14 15 15 15 16 14 13 13 14 11 8 10 10 10 10 10 9 8 7 7 6 5 7 6 7 8 7 5 5 5 5 5 5 6
11 8 7 8 3 5 2 5 1 9 4 12 12 3 4 9 7 3 2 0 1 3 6 5 6 8 8 8 11 13 12 7 2 4 2 1 1 3 2 2 3 4 5 5 5 5 10 10 11 12 12 11 13 13 13 15 15 13 12 14 12 9 10 10 10 10 10 10 9 8 8 7 7 7 6 7 6 8 9 6 6 5 5 6 6 6
8 7 4 7 6 9 8 8 11 9 6 12 18 12 7 10 5 8 7 5 3 4 5 5 7 7 8 9 10 10 10 7 2 1 0 1 1 1 1 1 1 2 2 2 5 8 8 9 9 9 8 9 11 12 12 16 15 13 14 13 9 10 10 10 9 10 10 9 9 9 7 7 6 6 6 7 7 7 9 7 6 5 4 4 6 8
10 12 10 11 4 7 8 11 12 3 12 8 3 3 16 15 5 7 5 8 7 7 5 5 8 7 8 9 7 6 5 6 6 5 7 7 6 5 6 6 5 6 6 5 6 5 5 8 10 8 7 7 10 9 11 11 15 14 15 11 10 12 12 11 11 10 10 10 9 9 8 7 6 6 5 5 7 8 8 7 6 7 3 6 7 8
4 6 1 3 7 6 5 7 1 3 1 5 4 3 6 13 4 3 5 3 5 5 9 8 6 7 7 5 5 4 6 5 6 5 5 4 5 5 2 2 2 3 3 3 3 5 5 5 6 9 10 6 7 7 7 8 11 18 14 11 11 11 12 13 13 11 11 10 9 9 9 9 7 5 5 5 4 5 5 7 8 8 7 7 6 5
3 4 4 5 2 8 9 13 7 6 5 9 9 2 1 1 5 4 4 5 3 1 2 2 2 4 5 5 6 6 6 4 6 5 4 3 5 6 7 7 6 6 6 7 5 7 7 8 9 10 11 11 7 8 7 7 6 6 8 11 9 9 10 11 11 11 10 10 9 8 8 9 8 7 6 5 4 3 4 6 7 9 7 6 6 5
4 3 7 5 5 12 13 6 5 8 3 4 7 6 3 3 3 3 2 1 2 4 2 1 2 3 4 5 6 5 5 5 6 7 6 8 7 7 7 7 6 5 3 4 5 5 6 8 10 11 12 12 10 8 8 8 8 9 11 8 8 8 9 10 10 12 11 11 9 9 8 8 8 8 6 4 4 5 4 4 6 7 7 6 6 6
5 11 7 9 11 6 4 2 1 6 2 3 4 4 4 7 8 3 3 4 5 4 2 1 0 1 5 4 3 4 4 7 8 7 8 6 5 6 7 5 4 4 5 6 5 6 9 9 10 11 11 10 7 7 8 7 8 10 13 12 11 12 13 12 10 10 11 10 9 8 7 8 9 8 7 7 7 3 2 7 7 7 4 2 4 5
8 11 2 5 6 9 14 9 7 5 4 8 9 10 5 3 6 6 3 4 4 5 4 4 1 0 2 2 3 4 5 3 3 2 4 4 5 4 4 5 5 5 4 3 4 4 4 5 6 9 9 7 6 7 8 8 8 9 10 11 12 13 14 13 12 11 10 9 9 8 8 8 8 8 7 6 5 8 6 4 5 3 5 4 7 10
12 9 8 10 10 15 11 7 11 4 2 4 7 6 5 5 7 8 7 6 4 4 5 5 3 1 1 1 1 2 0 1 3 2 3 3 4 3 3 4 6 5 5 5 6 5 6 6 6 6 7 7 7 7 8 8 7 9 9 10 11 12 13 13 12 10 9 9 9 9 10 10 9 6 5 5 6 10 9 7 4 7 7 5 5 7
Wind_Direction
149 169 185 196 200 202 211 195 191 217 196 171 59 150 196 198 247 280 267 270 228 156 228 211 224 237 277 254 246 257 296 259 259 244 233 233 224 222 224 219 219 219 223 219 214 208 203 204 206 205 200 201 200 197 187 191 196 192 189 184 195 190 178 177 177 181 177 182 187 194 197 204 201 207 206 208 208 205 206 203 206 206 207 208 210 214
160 193 210 195 193 210 224 205 210 229 231 224 248 192 270 184 234 245 219 328 321 174 260 208 257 264 254 265 255 115 171 239 226 228 239 236 231 228 222 225 223 225 261 273 227 234 222 213 207 201 199 192 195 207 193 194 196 193 188 191 194 184 187 188 185 182 186 190 191 189 201 199 196 200 205 214 209 207 201 202 206 208 203 202 204 205
189 208 190 189 190 207 238 220 221 214 231 212 212 237 259 262 245 283 278 305 312 152 257 17 216 252 250 241 273 206 219 236 223 211 219 216 229 229 225 229 234 240 238 231 235 221 210 210 207 199 201 201 201 198 199 198 187 191 192 198 192 190 189 194 189 182 194 194 193 190 195 194 205 222 216 216 210 203 201 203 205 204 202 202 207 205
196 213 188 181 199 223 236 232 239 248 249 206 208 130 219 235 151 258 269 0 357 122 260 162 204 269 284 277 252 251 220 231 224 217 232 219 220 218 218 212 217 223 228 229 223 218 213 209 208 205 206 204 199 199 201 199 195 193 196 196 193 193 194 192 193 194 196 191 185 191 168 188 183 197 205 209 215 211 214 217 207 207 200 201 206 206
193 141 166 173 205 199 217 231 217 228 243 238 177 167 209 171 233 156 215 120 325 15 91 91 4 304 274 268 285 263 236 254 256 237 250 252 243 250 266 255 227 214 210 221 227 227 210 210 213 206 205 195 198 201 200 197 196 196 197 195 192 192 195 196 191 192 178 153 155 157 115 121 202 344 176 196 230 211 210 216 203 214 199 202 207 207
215 195 160 196 193 191 211 227 219 186 236 253 220 192 211 204 185 253 126 110 33 303 308 199 319 292 281 261 237 252 11 234 238 220 236 239 241 238 243 237 235 244 234 215 211 208 204 205 211 216 206 199 205 205 204 199 199 198 198 194 193 193 194 195 193 184 169 178 174 169 178 193 197 211 198 208 211 200 207 214 191 193 197 201 209 209
181 213 169 189 176 196 206 218 219 163 212 213 256 187 215 191 162 138 139 96 130 180 288 15 192 265 329 289 248 263 262 251 271 231 246 246 244 229 234 236 230 227 234 245 260 256 219 214 207 211 206 205 206 212 201 197 200 202 199 196 193 193 195 193 185 178 174 179 186 189 196 199 200 207 224 200 170 192 209 158 174 187 187 191 188 194
171 168 176 177 180 187 200 213 225 169 175 225 245 131 129 119 142 176 158 167 194 253 312 47 131 205 291 284 257 269 276 265 282 263 252 247 238 228 231 231 233 231 223 217 223 221 215 209 201 204 207 203 208 206 187 197 198 197 198 192 195 194 190 189 177 178 184 187 192 194 200 198 199 204 201 187 191 165 151 148 144 111 87 76 109 150
165 187 180 182 179 182 205 201 227 169 169 220 204 158 162 168 180 158 143 148 146 129 262 313 269 259 256 267 306 297 296 289 254 247 247 242 239 238 237 235 233 229 222 213 217 216 208 207 212 216 209 210 201 174 189 197 198 196 192 190 187 194 190 190 179 182 192 193 190 193 191 196 201 172 169 154 112 133 138 113 74 89 89 80 75 91
299 180 189 170 171 198 192 209 193 168 188 254 123 86 77 73 68 112 104 104 28 104 252 233 192 201 281 273 331 337 240 269 259 247 245 238 232 226 228 236 238 241 242 237 235 234 230 223 220 218 240 203 212 212 206 205 189 193 185 188 188 198 193 189 185 186 191 192 181 185 184 182 163 135 101 113 121 121 122 111 105 108 94 96 80 71
196 347 55 124 187 176 177 210 158 203 207 121 111 85 51 44 38 33 70 103 72 269 252 236 280 163 289 264 219 195 221 201 245 291 276 268 272 252 236 230 224 224 222 214 211 222 225 264 229 206 200 216 222 221 205 204 199 195 193 191 195 200 192 190 191 185 191 189 184 183 176 170 160 156 147 128 113 116 108 118 116 111 116 86 100 91
15 9 129 241 90 357 122 116 21 162 175 142 120 126 83 358 12 26 339 38 163 264 262 256 208 170 192 290 279 242 272 234 214 239 261 282 269 253 245 234 223 204 198 187 163 159 133 112 81 95 166 181 197 178 201 209 202 194 198 191 197 198 194 192 192 187 187 180 181 175 169 170 167 159 159 155 156 156 144 144 139 141 96 65 66 50
44 174 251 354 220 145 123 102 19 60 119 95 107 127 138 226 42 237 3 236 223 205 240 346 158 357 249 230 253 270 265 267 219 219 237 250 278 268 258 236 213 200 185 180 188 178 183 177 177 181 194 190 192 197 199 203 198 197 188 190 192 201 190 190 181 185 173 168 172 167 170 169 164 162 157 154 147 158 146 146 138 128 114 77 57 36
265 276 328 285 2 198 170 168 197 141 261 128 149 149 126 117 142 199 264 266 315 285 269 232 287 267 244 279 245 247 255 251 222 233 239 243 254 247 223 222 221 219 201 196 194 199 200 206 215 215 204 206 215 220 214 209 200 198 190 190 190 194 178 171 167 166 160 165 161 160 158 156 155 153 150 152 145 154 140 142 137 131 125 102 115 96
165 231 236 156 192 1 1 219 166 156 120 221 122 150 171 144 152 198 194 202 213 201 280 274 92 233 134 242 233 236 267 303 269 259 258 253 255 239 229 222 243 229 230 220 204 204 210 220 213 217 224 229 230 232 234 228 222 197 197 185 187 168 169 158 155 145 146 146 144 142 143 144 144 143 137 132 134 136 125 121 110 106 113 111 116 110
198 173 297 335 134 127 172 294 121 117 136 190 168 78 125 209 147 173 203 164 178 170 55 218 209 187 179 255 270 251 268 281 312 317 344 272 298 246 201 204 211 227 242 240 229 240 248 237 224 221 218 220 219 226 233 229 214 201 203 185 182 165 154 145 138 139 139 136 133 133 133 134 126 117 113 107 99 96 114 123 118 113 108 110 104 84
109 209 332 308 75 91 160 195 293 164 186 202 115 199 212 128 103 91 56 129 106 44 256 177 321 290 300 316 284 333 311 269 319 298 325 270 265 267 229 229 234 231 221 222 222 222 235 246 240 228 221 224 229 225 220 220 206 192 168 156 143 137 136 138 136 130 127 126 119 118 119 123 123 124 123 122 113 108 97 102 103 109 102 97 105 109
158 207 334 76 193 3 130 131 261 46 154 98 162 219 165 131 112 139 210 351 63 196 259 91 207 284 48 262 314 334 302 277 281 253 254 285 275 240 232 228 224 220 221 223 228 230 214 204 190 196 227 207 195 199 204 208 194 170 163 156 145 144 138 137 130 127 128 124 118 116 110 107 116 119 117 115 113 111 105 97 100 103 106 111 113 107
121 88 302 312 13 281 4 63 63 355 4 149 193 185 132 231 247 280 107 229 179 246 263 297 263 271 182 232 335 274 235 253 253 239 249 250 241 235 240 247 252 256 246 227 214 199 188 177 182 174 173 183 233 211 180 159 149 144 145 150 145 142 137 134 125 118 111 113 113 114 115 116 110 106 101 100 109 111 112 113 113 111 116 107 102 102
79 144 294 332 119 289 18 91 193 201 354 39 69 123 100 114 179 146 202 176 135 243 72 292 70 228 206 222 202 247 229 232 250 241 230 231 222 216 224 230 223 217 213 209 203 199 193 195 192 180 168 160 162 149 155 142 134 138 139 128 120 114 117 118 120 121 115 112 114 110 101 94 102 104 110 117 118 112 111 119 116 116 107 112 105 99
157 106 161 269 289 96 191 188 207 159 153 21 115 193 242 0 221 113 41 132 173 174 185 202 298 275 252 215 194 225 237 234 210 225 234 238 226 217 219 216 212 208 205 203 193 186 185 184 186 188 186 135 86 86 118 139 143 143 134 134 142 137 133 124 123 119 119 116 113 113 111 112 109 107 109 106 107 108 110 110 110 111 125 111 96 106
103 108 154 152 86 213 236 241 187 195 206 184 168 195 177 131 118 164 249 45 98 133 237 140 248 265 269 183 202 220 239 260 213 212 239 250 239 223 223 220 204 205 210 190 186 174 174 185 182 152 91 80 102 108 116 123 127 134 139 143 139 131 132 131 130 127 126 119 119 116 116 113 110 113 110 108 107 109 114 118 119 129 111 100 104 101
139 119 104 156 212 195 217 265 205 173 77 241 207 205 183 184 142 139 199 236 336 249 115 165 191 270 241 210 213 230 247 243 239 205 242 250 243 234 227 211 210 207 190 183 175 176 179 177 175 167 156 149 143 142 137 136 141 141 138 137 140 134 139 136 133 127 123 120 119 117 116 116 116 116 114 113 115 117 122 122 118 116 111 109 106 93
85 111 84 320 329 313 306 306 301 161 54 308 260 44 173 197 190 184 176 183 168 188 195 266 239 251 288 242 230 248 256 258 261 213 233 257 253 244 214 197 194 191 173 168 168 170 174 167 153 141 147 146 149 156 159 150 137 135 141 142 141 139 139 132 129 127 119 116 114 118 118 117 121 117 121 120 127 124 124 120 115 116 109 114 111 105
142 270 119 109 38 354 337 337 333 339 120 208 225 256 242 303 63 143 105 91 148 219 176 153 236 270 269 310 287 276 277 280 269 254 205 245 264 230 208 194 182 175 155 163 173 171 156 154 167 182 178 175 174 165 156 153 155 151 151 152 146 139 140 130 128 123 120 123 123 124 122 124 126 126 127 128 130 127 125 120 119 114 116 113 103 109
124 172 142 143 158 176 194 205 209 202 191 235 214 230 193 170 150 127 214 205 213 271 141 188 252 238 275 309 288 281 282 290 263 252 264 222 242 213 188 181 175 169 177 172 172 168 182 186 187 186 188 180 177 170 165 164 162 158 153 155 146 139 133 128 122 124 125 129 128 130 128 131 132 134 136 134 131 128 126 123 117 113 102 112 113 105
136 149 188 185 186 197 206 189 74 115 122 198 209 172 195 189 186 140 107 134 210 202 191 226 224 233 238 253 242 265 236 226 257 256 241 242 238 211 176 169 179 179 177 181 182 185 177 189 198 194 191 185 177 177 173 167 165 161 151 145 140 135 133 135 130 130 129 132 131 133 137 141 142 140 138 133 130 126 120 114 113 108 110 107 106 100
111 166 211 208 215 231 123 165 193 155 181 203 179 191 187 171 170 163 190 220 148 90 264 233 228 233 226 230 252 264 266 259 266 267 262 256 249 188 177 166 157 164 168 175 184 186 193 195 194 195 190 181 181 177 179 177 170 164 159 154 148 141 137 138 134 134 134 136 136 140 142 143 142 137 132 127 123 118 114 112 108 107 106 100 87 82
155 202 207 169 220 173 168 145 165 173 189 184 183 179 173 180 161 190 216 219 143 195 231 234 218 240 235 205 220 227 229 234 230 249 252 229 165 166 152 163 177 187 184 190 202 198 193 195 194 191 188 185 176 182 179 173 165 153 145 146 150 149 149 147 139 139 140 142 143 147 144 138 133 128 125 123 118 116 116 114 113 105 97 90 87 80
152 222 164 170 156 163 215 164 172 169 179 155 182 186 185 167 195 204 217 215 196 222 238 266 293 260 249 206 216 224 233 246 270 291 84 159 208 187 183 185 188 190 194 202 204 202 200 196 185 187 184 186 187 183 179 175 173 169 161 158 156 150 152 143 145 145 147 147 146 143 140 134 130 128 123 118 118 119 118 112 104 98 91 86 85 80
145 246 134 133 116 220 226 206 191 181 157 179 205 196 189 195 205 210 215 224 231 279 275 296 292 277 261 153 215 236 204 79 53 226 208 220 215 197 191 193 193 199 208 212 208 204 198 188 187 185 191 194 191 188 181 177 170 163 160 161 160 158 161 152 149 149 147 144 143 140 136 132 130 127 121 122 118 117 110 104 101 95 90 83 76 75
134 201 37 112 159 249 224 167 174 57 130 172 190 204 209 205 212 219 220 190 181 226 237 247 261 253 89 177 188 208 152 167 209 233 244 250 230 195 199 200 202 209 213 213 209 196 189 192 191 195 197 195 191 184 180 174 170 166 169 166 166 161 154 149 149 146 145 142 142 142 139 135 130 124 125 123 119 113 108 105 101 98 97 92 83 74
155 126 140 145 159 223 268 134 136 116 111 281 239 215 204 200 204 200 211 199 205 209 214 219 239 226 184 185 162 157 150 203 221 230 249 259 233 193 202 207 213 218 219 215 203 197 197 197 199 199 196 189 189 185 185 170 166 177 173 169 164 148 153 152 150 145 143 147 144 143 138 137 131 127 124 120 117 114 109 109 105 105 102 97 100 88
138 155 173 166 177 192 134 137 107 128 199 227 237 176 170 198 197 182 216 217 224 193 219 224 243 179 196 184 200 198 187 211 207 222 214 221 208 185 217 219 222 223 227 224 210 204 206 203 205 202 195 190 185 183 175 179 176 169 159 150 145 153 154 150 151 150 148 147 147 144 141 137 132 126 124 121 116 116 115 112 112 110 107 104 90 89
152 137 154 164 114 161 198 104 145 205 227 233 58 159 183 196 179 204 220 214 211 216 238 255 260 243 207 216 206 217 211 237 236 228 246 241 181 189 202 215 223 225 224 218 213 211 206 203 199 188 182 188 184 176 169 173 169 147 146 153 154 160 155 158 152 154 152 147 146 144 143 139 134 129 127 124 122 118 115 116 117 106 102 100 99 98
158 149 135 61 117 64 104 155 180 225 242 350 283 266 245 182 204 205 254 256 238 216 220 236 242 242 220 238 236 259 191 248 289 251 238 244 203 205 204 220 226 223 225 217 207 210 202 198 195 192 196 176 162 170 172 168 155 155 159 157 159 157 160 156 155 152 149 148 152 151 150 142 136 132 132 133 131 127 124 119 120 117 117 103 94 87
156 118 139 153 203 154 204 182 219 330 322 276 259 199 144 177 131 173 225 246 223 215 208 231 246 247 236 238 212 225 244 313 288 271 214 224 229 221 214 223 220 220 220 224 206 211 206 200 197 192 159 161 169 165 172 161 158 156 154 160 165 161 159 158 158 160 159 155 154 152 151 146 139 137 137 138 132 129 130 128 122 111 114 99 94 88
167 159 206 138 229 124 127 193 342 270 258 247 202 172 165 160 167 165 180 260 230 213 211 222 241 243 227 232 224 198 103 313 281 268 222 207 219 224 231 233 236 229 231 241 206 206 175 178 157 155 167 165 171 170 158 158 159 157 161 164 163 164 164 166 167 163 159 157 155 151 149 147 143 140 142 143 140 136 131 123 111 109 104 108 112 97
27 75 144 156 149 92 105 158 202 203 240 162 150 171 183 159 151 128 156 252 254 183 208 208 235 243 209 210 205 114 137 226 255 259 189 191 219 223 229 240 241 251 244 207 186 183 172 169 163 155 148 157 165 172 162 160 158 160 168 169 170 171 170 174 167 164 161 154 148 144 141 142 141 141 143 141 139 138 132 131 125 116 101 101 99 95
81 33 110 130 148 189 162 170 220 208 248 196 186 198 177 135 111 106 82 258 240 152 195 196 217 233 216 215 170 166 177 231 247 262 157 191 206 215 209 232 244 241 247 235 207 171 153 136 129 150 163 176 182 165 163 160 164 169 169 172 170 174 178 175 165 151 138 137 138 137 135 140 141 141 141 138 131 127 123 123 110 104 105 94 91 90
126 35 144 194 179 172 167 231 324 282 256 192 204 165 146 140 122 134 206 237 180 186 196 189 201 220 211 199 164 193 223 222 243 275 226 336 183 240 258 283 256 224 214 180 163 139 145 163 166 175 182 179 161 160 163 163 163 173 175 171 174 184 175 154 142 140 141 136 134 133 132 131 139 137 132 132 131 123 112 106 111 108 99 101 92 90
121 121 331 74 157 175 193 175 226 256 239 168 285 156 167 104 173 204 225 189 158 213 255 185 206 223 177 183 189 212 231 231 237 46 50 257 206 261 310 329 77 59 45 95 141 147 149 159 163 156 160 167 166 166 168 168 173 173 169 172 183 174 144 144 145 141 138 138 133 131 130 131 127 126 131 132 127 120 108 98 98 100 105 104 102 99
176 146 190 184 181 58 87 196 146 253 259 129 121 106 270 180 225 192 161 247 195 176 171 205 184 222 168 206 207 215 232 243 210 212 207 228 178 216 218 175 175 158 149 134 149 180 157 162 174 177 173 166 168 170 171 169 171 171 170 180 174 146 145 145 143 141 138 134 134 135 135 133 134 134 134 128 126 122 116 114 106 102 102 111 112 106
181 148 200 212 174 165 162 183 207 218 108 162 140 182 199 210 190 170 131 190 222 179 181 171 225 208 195 192 208 225 234 237 276 165 79 277 252 263 222 221 159 171 174 206 177 175 173 167 170 166 165 165 167 172 172 173 172 170 174 177 143 144 142 144 144 140 136 136 134 133 131 133 129 127 127 130 128 119 121 121 119 112 109 135 126 108
206 199 171 184 200 140 195 213 230 179 171 197 149 144 185 204 174 187 174 174 180 242 192 167 212 216 193 203 212 205 222 224 215 183 180 211 203 198 197 204 197 195 191 179 181 174 177 169 165 151 151 166 167 173 175 178 171 167 174 163 149 154 152 148 145 141 140 139 140 137 136 129 131 132 130 133 133 130 131 135 146 128 132 138 89 81
228 194 59 107 221 232 274 224 89 72 172 224 237 218 194 202 170 122 183 229 246 209 173 185 210 199 202 198 179 226 214 202 175 197 218 213 199 215 211 200 199 187 172 148 147 164 152 128 135 149 153 158 167 164 172 175 172 173 174 150 158 156 153 149 146 144 143 142 141 143 140 132 127 122 124 124 117 124 137 145 148 134 118 86 93 101
244 146 147 182 235 165 241 231 170 192 195 194 197 210 267 198 192 170 176 201 230 158 218 319 193 175 171 161 188 192 208 184 189 204 196 189 206 204 198 199 201 191 181 180 175 144 139 146 151 161 165 165 173 164 163 159 158 151 132 157 153 151 148 147 143 138 139 142 142 142 145 142 143 139 132 123 114 121 140 176 124 108 108 111 120 133
278 177 180 192 162 188 230 229 199 204 181 189 169 153 214 198 176 170 187 199 169 144 177 190 129 111 132 170 197 172 194 189 181 194 197 205 204 201 203 203 195 185 195 166 160 161 150 165 168 169 171 175 176 167 159 156 151 143 142 141 144 139 140 143 147 147 150 152 152 154 157 152 148 146 136 143 151 146 140 105 102 118 134 149 153 145
161 130 206 185 200 244 348 2 26 75 128 237 243 261 218 183 164 147 155 144 144 122 121 77 39 193 193 231 171 157 161 214 207 194 192 199 202 205 209 193 190 185 165 161 178 175 177 177 177 179 176 174 166 160 159 155 146 147 151 153 152 154 151 153 152 150 151 154 151 154 156 155 158 142 139 136 122 90 83 115 109 123 126 174 146 147
109 196 159 113 215 221 218 211 141 149 225 236 219 205 208 209 149 145 133 134 143 147 158 146 86 54 187 210 185 191 203 225 220 186 213 210 212 200 180 181 179 170 167 163 151 181 182 188 179 174 179 169 164 163 159 156 153 158 158 158 162 162 160 157 154 154 158 158 157 155 156 158 152 147 135 140 148 143 103 103 126 134 129 173 204 203
185 182 150 186 191 221 219 187 191 181 137 223 196 189 196 168 148 152 177 180 199 193 162 139 136 109 86 47 158 147 121 186 219 180 214 226 230 210 195 170 171 174 174 161 160 190 191 189 182 179 179 169 163 168 166 163 163 163 166 168 171 170 165 157 153 157 156 162 168 167 163 152 136 150 139 155 147 122 122 118 113 128 131 129 133 147